Munising, MI

3:18 PM EST on January 20, 2018 (GMT -0500)
Munising

Weather History for KP53 - February, 2013

Change the Weather History Date:

Friday, February 15, 2013

  Actual Average (KISQ) Record (KISQ)
Temperature  
Mean Temperature 16 °F -  
Max Temperature 21 °F 26 °F 49 °F (1954)
Min Temperature 12 °F 8 °F -21 °F (2015)
Degree Days  
Heating Degree Days 48    
Moisture  
Dew Point 9 °F    
Average Humidity 68    
Maximum Humidity 78    
Minimum Humidity 57    
Precipitation  
Precipitation 0.04 in - - ()
Sea Level Pressure  
Sea Level Pressure 30.07 in    
Wind  
Wind Speed 15 mph (NW)    
Max Wind Speed 21 mph    
Max Gust Speed 30 mph    
Averages and records for this station are not official NWS values.
T = Trace of Precipitation, MM = Missing Value Source: NWS Daily Summary

Daily Weather History Graph

Daily Weather History Graph

Search for Another Location

Airport or City:

Trip Planner

Search our weather history database for the weather conditions in past years. The results will help you decide how hot, cold, wet, or windy it might be!

Date:

Astronomy

Feb. 15, 2013 Rise Set
Actual Time 7:49 AM EST 6:12 PM EST
Civil Twilight 7:18 AM EST 6:43 PM EST
Nautical Twilight 6:43 AM EST 7:18 PM EST
Astronomical Twilight 6:08 AM EST 7:53 PM EST
Moon 10:02 AM EST (2/15) No Moon Set
Length of Visible Light 11h 24m
Length of Day
10h 23m
Waxing Crescent, 30% of the Moon is Illuminated
Feb 15
Waxing Crescent
Feb 17
First Quarter
Feb 25
Full
Mar 4
Last Quarter
Mar 11
New

Hourly Weather History & Observations

Time (EST) Temp. Windchill Dew Point Humidity Pressure Visibility Wind Dir Wind Speed Gust Speed Precip Events Conditions
12:56 AM 21.0 °F 5.4 °F 15.1 °F 78% 29.93 in - NNW 20.7 mph 29.9 mph N/A   Unknown
1:56 AM 21.9 °F 6.9 °F 12.9 °F 68% 29.94 in - NNW 19.6 mph 27.6 mph N/A   Unknown
2:56 AM 21.0 °F 5.4 °F 12.0 °F 68% 29.96 in - NNW 20.7 mph 27.6 mph N/A   Unknown
3:56 AM 19.9 °F 4.3 °F 12.0 °F 71% 29.97 in - NNW 19.6 mph 25.3 mph N/A   Unknown
4:56 AM 19.0 °F 4.5 °F 12.0 °F 74% 30.00 in - NNW 16.1 mph 23.0 mph N/A   Unknown
5:56 AM 19.0 °F 6.1 °F 10.9 °F 71% 30.02 in - NNW 12.7 mph - N/A   Unknown
6:56 AM 19.0 °F 6.1 °F 10.0 °F 68% 30.04 in - NNW 12.7 mph 21.9 mph N/A   Unknown
7:56 AM 19.0 °F 4.5 °F 9.0 °F 65% 30.05 in - NNW 16.1 mph 24.2 mph N/A   Unknown
8:56 AM 19.0 °F 5.6 °F 10.0 °F 68% 30.06 in - NNW 13.8 mph 21.9 mph N/A   Unknown
9:56 AM 19.0 °F 6.8 °F 12.0 °F 74% 30.08 in - NNW 11.5 mph 21.9 mph 0.01 in   Unknown
10:56 AM 19.0 °F 4.0 °F 9.0 °F 65% 30.09 in - NNW 17.3 mph 25.3 mph N/A   Unknown
11:56 AM 19.0 °F 5.0 °F 9.0 °F 65% 30.09 in - NW 15.0 mph 21.9 mph N/A   Unknown
12:56 PM 18.0 °F 3.1 °F 6.1 °F 60% 30.10 in - NW 16.1 mph 24.2 mph N/A   Unknown
1:56 PM 18.0 °F 2.6 °F 5.0 °F 57% 30.10 in - NNW 17.3 mph 25.3 mph N/A   Unknown
2:56 PM 18.0 °F 8.7 °F 8.1 °F 65% 30.10 in - NW 6.9 mph 18.4 mph N/A   Unknown
3:56 PM 18.0 °F 5.4 °F 7.0 °F 62% 30.11 in - NNW 11.5 mph - N/A   Unknown
4:56 PM 17.1 °F 3.6 °F 5.0 °F 59% 30.13 in - NW 12.7 mph 18.4 mph N/A   Unknown
5:56 PM 16.0 °F 4.4 °F 6.1 °F 65% 30.15 in - NNW 9.2 mph 18.4 mph N/A   Unknown
6:56 PM 16.0 °F 2.3 °F 5.0 °F 62% 30.15 in - NNW 12.7 mph 21.9 mph N/A   Unknown
7:56 PM 14.0 °F 3.9 °F 8.1 °F 77% 30.16 in - NW 6.9 mph - 0.01 in   Unknown
8:56 PM 14.0 °F 6.5 °F 6.1 °F 71% 30.15 in - Variable 4.6 mph - 0.01 in   Unknown
9:56 PM 12.9 °F 1.6 °F 6.1 °F 74% 30.15 in - WSW 8.1 mph - N/A   Unknown
10:56 PM 12.9 °F 5.2 °F 6.1 °F 74% 30.14 in - SW 4.6 mph - N/A   Unknown
11:56 PM 12.9 °F 1.6 °F 6.1 °F 74% 30.12 in - WSW 8.1 mph - 0.01 in   Unknown